Powrót do katalogu

SL-8 DEB

AktywnyLEO
NORAD 21186·DEBRIS·🇷🇺 Russia

Wystrzelony Feb 12, 1991 z Plesetsk Cosmodrome

Loading…

Następne Przeloty (najbliższe 24 godziny)

TLE

ŚwieżeSource: Space-Track

Epoka: Sep 14, 2026, 06:21 UTC

1 21186U 91009AZ  26257.26515265  .00000136  00000-0  15297-2 0  9997
2 21186  74.1072 359.4475 0149108 339.7296  46.9025 12.13116511572811

Śledź SL-8 DEB w czasie rzeczywistym z AllMySat

Download on the App Store